Regional Weather Roundup
Issued by NWS

Home | Current Version | Previous Version | Graphics & Text | Print | Product List | Glossary On
Versions: 1 2 3 4 5 6 7 8 9 10 11 12 13 14 15 16 17 18 19 20 21 22 23 24 25 26 27 28 29 30 31 32 33 34 35 36 37 38 39 40 41 42 43 44 45 46 47 48 49 50
298
ASUS45 KPSR 260910
RWRAZ

ARIZONA HOURLY REGIONAL WEATHER ROUNDUP
NATIONAL WEATHER SERVICE PHOENIX AZ
200 AM MST TUE JUL 26 2016

NOTE: FAIR INDICATES FEW OR NO CLOUDS BELOW 12,000 FEET WITH NO
SIGNIFICANT WEATHER AND/OR OBSTRUCTIONS TO VISIBILITY.

AZZ001>003-036-261000-
NORTHWEST ARIZONA

CITY           SKY/WX    TMP DP  RH WIND       PRES   REMARKS
BULLHEAD CITY  PTCLDY    95  55  26 S7        29.79S
KINGMAN        PTCLDY    79  51  37 SE8       30.03R
$$

AZZ004>008-015-016-018-261000-
NORTH CENTRAL ARIZONA

CITY           SKY/WX    TMP DP  RH WIND       PRES   REMARKS
GRAND CANYON   CLOUDY    72  43  35 NE5       30.30F
WILLIAMS       CLOUDY    64  54  68 NE6       30.40R
PRESCOTT       PTCLDY    64  59  83 SW3       30.18F
FLAGSTAFF      LGT RAIN  57  57 100 CALM      30.35R
PAYSON         PTCLDY    73  50  43 CALM      30.18F
PAGE           CLOUDY    84  45  25 SW5       30.07S
$$

AZZ009>014-017-261000-
NORTHEAST ARIZONA

CITY           SKY/WX    TMP DP  RH WIND       PRES   REMARKS
WINSLOW        MOCLDY    71  52  50 W5        30.17S
SAINT JOHNS    CLOUDY    72  53  51 CALM      30.22F
WINDOW ROCK    CLOUDY    67  54  63 CALM      30.32F
SHOW LOW       PTCLDY    64  50  59 CALM      30.30S
$$

AZZ023-261000-
GREATER PHOENIX AREA

CITY           SKY/WX    TMP DP  RH WIND       PRES   REMARKS
PHOENIX        MOCLDY    94  55  26 NW12      29.80S
BUCKEYE        MOCLDY    90  57  33 NW6       29.83S
LUKE AFB       MOCLDY    91  58  33 N9        29.81S
DEER VALLEY    PTCLDY    90  53  28 NW5       29.83F
SCOTTSDALE     PTCLDY    92  53  26 NE6       29.85F
MESA-GATEWAY   PTCLDY    88  55  33 N10       29.84R
$$

AZZ027-028-261000-
SOUTHWEST MARICOPA COUNTY AND PINAL COUNTY

CITY           SKY/WX    TMP DP  RH WIND       PRES   REMARKS
CASA GRANDE    MOCLDY    88  55  33 W7        29.86R
GILA BEND      CLOUDY    93  59  32 SW3       29.79R
$$

AZZ503-504-507>509-261000-
SOUTHEAST ARIZONA

CITY           SKY/WX    TMP DP  RH WIND       PRES   REMARKS
TUCSON         CLEAR     87  59  38 W6        29.95S
DAVIS-MONTHAN  CLEAR     85  59  41 S3        29.94S
NOGALES        CLEAR     75  59  57 SE3       30.05S
SIERRA VISTA   PTCLDY    78  55  44 W5        30.13R
DOUGLAS        MOCLDY    71  66  84 S3        30.07R
SAFFORD        MOCLDY    78  61  55 E6        30.03F
$$

AZZ020-021-025-026-031-261000-
SOUTHWEST ARIZONA

CITY           SKY/WX    TMP DP  RH WIND       PRES   REMARKS
YUMA           CLOUDY    87  73  62 NE10      29.74F
$$

CAZ031-033-041-043-047-048-061-261000-
SOUTHERN CALIFORNIA

CITY           SKY/WX    TMP DP  RH WIND       PRES   REMARKS
DOWNTOWN L.A.  CLOUDY    69  64  84 CALM      29.91S
L.A. AIRPORT   MOCLDY    68  64  87 NW6       29.91F
SAN DIEGO      PTCLDY    68  66  93 NW3       29.91F
BURBANK        CLOUDY    74  60  61 SE5       29.91F
ONTARIO        PTCLDY    74  59  59 SW3       29.93S
RIVERSIDE      CLEAR     75  61  61 SW3       29.93S
PALM SPRINGS   PTCLDY    92  54  27 NW13      29.81S
EL CENTRO NAS  PTCLDY    92  63  38 S10       29.78F
IMPERIAL       MOCLDY    95  64  35 S8        29.75F
BLYTHE         PTCLDY    96  63  33 W8        29.78F
NEEDLES        CLEAR     99  59  26 SW7       29.80S
$$

NVZ020-UTZ003-261000-
SOUTHERN NEVADA-UTAH

CITY           SKY/WX    TMP DP  RH WIND       PRES   REMARKS
LAS VEGAS      PTCLDY    94  45  18 S10       29.81F
SALT LAKE CITY PTCLDY    80  41  24 SE10      30.01F
$$

NMZ009-TXZ055-261000-
NEW MEXICO-WEST TEXAS

CITY           SKY/WX    TMP DP  RH WIND       PRES   REMARKS
ALBUQUERQUE    CLOUDY    72  57  59 E16       30.25F
EL PASO        MOCLDY    83  58  42 NE20      30.07R
$$


........................KEY........................
SKY/WX - SKY CONDITION/WEATHER
TMP    - TEMPERATURE IN FAHRENHEIT
DP     - DEW POINT IN FAHRENHEIT
RH     - RELATIVE HUMIDITY IN PERCENT
WIND   - DIRECTION AND SPEED IN MILES PER HOUR (MPH)
VRB    - VARIABLE WIND DIRECTION
PRES   - MEAN SEA LEVEL PRESSURE IN INCHES OF MERCURY
         F - FALLING PRESSURE   R - RISING PRESSURE
         S - STEADY PRESSURE
VSB    - VISIBILITY IN MILES
HX     - HEAT INDEX IN FAHRENHEIT
WCI    - WIND CHILL INDEX IN FAHRENHEIT
TC     - TEMPERATURE IN CELSIUS WHICH IS ALSO KNOWN AS
         TEMPERATURE IN CENTIGRADE
AFB    - AIR FORCE BASE
         LUKE AFB IS LUKE AIR FORCE BASE
         DAVIS-MONTHAN IS DAVIS-MONTHAN AIR FORCE BASE
NAS    - NAVAL AIR STATION
         EL CENTRO NAS IS EL CENTRO NAVAL AIR STATION
N/A    - NOT AVAILABLE





USA.gov is the U.S. government's official web portal to all federal, state and local government web resources and services.